KE0TRL Weather Reports


time (UTC)temp
F
wind
direction
speed
knots
gust
knots
rain 1hr
in
rain 24hr
in
rain mn
in
humidity
%
barometer
mb
20260508013603 62 158 0.0 0.0 0.00 0.00 0.00 32 1007.5
20260508012602 63 158 0.0 0.9 0.00 0.00 0.00 31 1007.5
20260508011402 64 158 0.9 1.7 0.00 0.00 0.00 30 1007.5
20260508010302 66 158 0.0 1.7 0.00 0.00 0.00 30 1007.1
20260508004003 68 113 3.5 3.5 0.00 0.00 0.00 27 1007.1
20260508002902 68 158 1.7 2.6 0.00 0.00 0.00 25 1006.8
20260508001803 70 180 2.6 2.6 0.00 0.00 0.00 25 1006.8
20260508000703 70 203 1.7 5.2 0.00 0.00 0.00 27 1006.8
20260507235602 72 203 2.6 2.6 0.00 0.00 0.00 25 1006.8
20260507234503 74 158 3.5 3.5 0.00 0.00 0.00 25 1006.8
20260507233402 73 23 4.3 4.3 0.00 0.00 0.00 27 1007.1
20260507232202 76 203 2.6 4.3 0.00 0.00 0.00 25 1007.1
20260507231102 75 180 2.6 3.5 0.00 0.00 0.00 25 1006.8
20260507230004 75 180 1.7 3.5 0.00 0.00 0.00 27 1007.1
20260507225003 74 158 7.0 7.0 0.00 0.00 0.00 27 1006.8
20260507223902 75 23 4.3 4.3 0.00 0.00 0.00 25 1006.8
20260507222801 75 270 0.9 7.0 0.00 0.00 0.00 27 1006.8
20260507221602 76 180 1.7 6.1 0.00 0.00 0.00 25 1006.8
20260507220502 75 248 1.7 3.5 0.00 0.00 0.00 25 1006.8
20260507215402 75 180 4.3 4.3 0.00 0.00 0.00 25 1006.8
20260507214203 75 315 3.5 4.3 0.00 0.00 0.00 27 1007.1
20260507210803 72 45 3.5 4.3 0.00 0.00 0.00 27 1007.1
20260507205703 75 225 4.3 11.3 0.00 0.00 0.00 27 1007.1
20260507204602 74 203 3.5 5.2 0.00 0.00 0.00 29 1007.1
20260507203402 74 180 2.6 4.3 0.00 0.00 0.00 29 1007.1
20260507201202 73 90 7.0 7.0 0.00 0.00 0.00 32 1007.5
20260507200201 73 225 3.5 5.2 0.00 0.00 0.00 30 1007.5
20260507195103 73 23 3.5 4.3 0.00 0.00 0.00 30 1007.5
20260507194002 73 45 5.2 5.2 0.00 0.00 0.00 32 1007.5
20260507192902 72 45 2.6 5.2 0.00 0.00 0.00 35 1007.5
20260507191802 72 23 1.7 4.3 0.00 0.00 0.00 35 1007.8
20260507190603 72 338 2.6 7.0 0.00 0.00 0.00 37 1007.5
20260507185503 71 45 3.5 3.5 0.00 0.00 0.00 37 1007.5
20260507184303 70 23 6.1 6.1 0.00 0.00 0.00 37 1007.8
20260507183102 70 23 3.5 4.3 0.00 0.00 0.00 37 1007.8
20260507182003 70 23 3.5 4.3 0.00 0.00 0.00 37 1008.1
20260507181002 69 23 4.3 4.3 0.00 0.00 0.00 39 1008.1
20260507175902 69 45 5.2 8.7 0.00 0.00 0.00 37 1008.1
20260507174802 67 315 2.6 6.1 0.00 0.00 0.00 40 1008.5
20260507173703 67 45 3.5 6.1 0.00 0.00 0.00 40 1008.5
20260507172502 67 68 4.3 5.2 0.00 0.00 0.00 43 1008.5
20260507171402 66 0 3.5 7.0 0.00 0.00 0.00 40 1008.8
20260507170302 65 248 0.9 3.5 0.00 0.00 0.00 40 1008.8
20260507165102 65 68 2.6 2.6 0.00 0.00 0.00 45 1009.1
20260507164002 64 45 2.6 5.2 0.00 0.00 0.00 45 1009.1
20260507162902 63 203 3.5 6.1 0.00 0.00 0.00 45 1009.1
20260507161802 63 68 1.7 7.0 0.00 0.00 0.00 46 1009.1
20260507160702 62 68 3.5 5.2 0.00 0.00 0.00 50 1009.5
20260507154502 60 90 3.5 5.2 0.00 0.00 0.00 51 1009.8
20260507153403 59 45 2.6 3.5 0.00 0.00 0.00 54 1010.2
20260507152305 58 23 2.6 4.3 0.00 0.00 0.00 55 1009.8
20260507145102 56 23 1.7 3.5 0.00 0.00 0.00 60 1010.5
20260507142902 54 45 2.6 5.2 0.00 0.00 0.00 63 1010.2
20260507141702 53 23 1.7 5.2 0.00 0.00 0.00 63 1010.5
20260507140602 52 23 2.6 5.2 0.00 0.00 0.00 65 1010.5
20260507135403 51 23 5.2 6.1 0.00 0.00 0.00 66 1010.5
20260507134302 51 45 4.3 4.3 0.00 0.00 0.00 69 1010.5
20260507133202 50 68 3.5 7.0 0.00 0.00 0.00 70 1010.8
20260507130902 48 113 1.7 3.5 0.00 0.00 0.00 74 1010.8
20260507125802 47 23 1.7 3.5 0.00 0.00 0.00 75 1010.8
20260507124702 47 45 3.5 3.5 0.00 0.00 0.00 76 1010.8
20260507123602 46 68 1.7 4.3 0.00 0.00 0.00 76 1010.8
20260507122502 45 45 3.5 6.1 0.00 0.00 0.00 79 1010.5
20260507121502 45 45 3.5 7.0 0.00 0.00 0.00 79 1010.8
20260507120402 44 45 6.1 6.1 0.00 0.00 0.00 79 1010.8
20260507114202 44 248 1.7 2.6 0.00 0.00 0.00 79 1010.8
20260507113004 44 68 2.6 2.6 0.00 0.00 0.00 79 1010.8
20260507110802 44 68 2.6 2.6 0.00 0.00 0.00 79 1010.8
20260507105702 44 68 3.5 4.3 0.00 0.00 0.00 79 1010.8
20260507104602 44 90 0.9 3.5 0.00 0.00 0.00 78 1010.8
20260507103503 44 113 1.7 2.6 0.00 0.00 0.00 78 1010.8
20260507102306 44 45 2.6 2.6 0.00 0.00 0.00 76 1010.8
20260507101203 45 68 1.7 3.5 0.00 0.00 0.00 75 1010.8
20260507095002 45 45 3.5 3.5 0.00 0.00 0.00 75 1010.8
20260507091502 45 68 3.5 3.5 0.00 0.00 0.00 74 1010.8
20260507090402 45 45 4.3 4.3 0.00 0.00 0.00 73 1011.2
20260507085305 44 45 2.6 4.3 0.00 0.00 0.00 71 1011.5
20260507083102 44 68 3.5 3.5 0.00 0.00 0.00 70 1011.5
20260507081002 44 90 1.7 2.6 0.00 0.00 0.00 65 1011.9
20260507075802 44 45 1.7 1.7 0.00 0.00 0.00 65 1012.2
20260507074702 44 113 0.9 2.6 0.00 0.00 0.00 63 1012.2
20260507073602 45 45 1.7 1.7 0.00 0.00 0.00 61 1012.2
20260507072502 45 90 0.9 1.7 0.00 0.00 0.00 61 1012.2
20260507071402 45 90 1.7 1.7 0.00 0.00 0.00 60 1012.5
20260507070302 45 45 1.7 1.7 0.00 0.00 0.00 56 1012.5
20260507064002 45 23 1.7 1.7 0.00 0.00 0.00 54 1012.9
20260507062902 45 45 1.7 1.7 0.00 0.00 0.00 53 1012.9
20260507061802 45 68 2.6 2.6 0.00 0.00 0.00 51 1012.9
20260507060602 45 158 0.9 1.7 0.00 0.00 0.00 51 1013.2
20260507055502 45 135 0.9 1.7 0.00 0.00 0.00 51 1013.2
20260507054402 46 90 1.7 1.7 0.00 0.00 0.00 50 1013.2
20260507053303 46 23 0.0 0.9 0.00 0.00 0.00 49 1013.2
20260507051102 47 113 2.6 2.6 0.00 0.00 0.00 46 1013.2
20260507044702 46 180 0.0 0.0 0.00 0.00 0.00 48 1013.2
20260507043302 46 158 0.0 0.0 0.00 0.00 0.00 49 1013.2
20260507041102 46 158 0.0 0.0 0.00 0.00 0.00 45 1013.5
20260507035002 46 158 0.0 0.0 0.00 0.00 0.00 46 1013.9
20260507031602 48 158 0.0 0.0 0.00 0.00 0.00 41 1013.9
20260507030503 50 158 0.0 0.0 0.00 0.00 0.00 37 1013.9
20260507024702 49 158 0.0 0.0 0.00 0.00 0.00 39 1013.9
20260507023603 50 158 0.0 0.9 0.00 0.00 0.00 39 1013.9
20260507022502 51 45 1.7 1.7 0.00 0.00 0.00 39 1013.9
20260507021402 49 180 0.0 0.0 0.00 0.00 0.00 40 1013.5
20260507020202 50 180 0.0 0.0 0.00 0.00 0.00 39 1013.5
20260507015102 51 180 0.0 0.0 0.00 0.00 0.00 37 1013.5
20260507014002 53 180 0.0 0.0 0.00 0.00 0.00 34 1013.2